Home > Weather > Zielona Góra > Past weeks

Flag for Poland Past Weather in Zielona Góra, Poland — Yesterday and Last 2 Weeks

Now
72 °F

Passing clouds.


Feels Like: 76 °F
Forecast: 64 / 81 °F
Wind: 1 mph from East

Location: Zielona Gora

Current Time: Jul 26, 2016 at 6:39:18 AM

Latest Report: Jul 26, 2016 at 5:00 AM


Visibility: 9 mi

Pressure: 30.03 "Hg

Humidity: 62%

Dew Point: 58 °F

Location of Zielona GóraLocation

Past Weather in Zielona Góra — Graph

°F

Zielona Góra Temperature Yesterday

Maximum temperature yesterday: 83 °F (at 6:00 PM)
Minimum temperature yesterday: 65 °F (at 4:00 AM)
Average temperature yesterday: 74 °F

High & Low Weather Summary for the Past Weeks

 TemperatureHumidityPressure
High89 °F (Jul 11, 3:00 PM)99% (Jul 14, 5:00 AM)30.25 "Hg (Jul 14, 5:00 AM)
Low51 °F (Jul 14, 7:00 PM)24% (Jul 22, 7:00 PM)29.73 "Hg (Jul 11, 6:00 PM)
Average67 °F71%30.02 "Hg
* Reported Jul 11 5:00 AM — Jul 26 5:00 AM, Zielona Góra, Weather by CustomWeather, © 2016

Note: Actual official high and low records may vary slightly from our data, if they occured in-between our weather recording intervals... More about our weather records

Advertising

Zielona Góra Weather History for the Previous 24 Hours

Scroll right to see more
 ConditionsComfort  
Time TempWeatherWind HumidityBarometerVisibility
5:00 AM
Tue, Jul 26
72 °FPassing clouds.1 mph62%30.03 "Hg9 mi
4:00 AM70 °FClear.1 mph68%30.03 "Hg9 mi
3:00 AM74 °FClear.1 mph62%30.03 "Hg12 mi
2:00 AM74 °FClear.1 mph61%30.02 "Hg12 mi
1:00 AM74 °FPassing clouds.1 mph61%30.03 "Hg12 mi
12:00 AM75 °FPassing clouds.No wind60%30.03 "Hg12 mi
11:00 PM
Mon, Jul 25
75 °FPassing clouds.2 mph63%30.03 "Hg12 mi
10:00 PM76 °FPassing clouds.1 mph58%30.02 "Hg12 mi
9:00 PM77 °FPassing clouds.1 mph55%30.01 "Hg12 mi
8:00 PM78 °FPassing clouds.2 mph56%30.01 "Hg16 mi
7:00 PM81 °FPassing clouds.1 mph49%29.99 "Hg16 mi
6:00 PM83 °FPassing clouds.1 mph46%29.98 "Hg12 mi
5:00 PM82 °FPassing clouds.1 mph48%29.99 "Hg12 mi
4:00 PM81 °FScattered clouds.1 mph47%30.01 "Hg12 mi
3:00 PM80 °FScattered clouds.1 mph48%30.02 "Hg12 mi
2:00 PM80 °FPartly sunny.2 mph51%30.03 "Hg12 mi
1:00 PM80 °FPartly sunny.1 mph54%30.03 "Hg9 mi
12:00 PM79 °FScattered clouds.1 mph57%30.03 "Hg9 mi
11:00 AM76 °FPassing clouds.2 mph67%30.05 "Hg7 mi
10:00 AM74 °FPassing clouds.1 mph71%30.05 "Hg6 mi
9:00 AM72 °FFog.1 mph76%30.06 "Hg4 mi
8:00 AM68 °FFog.1 mph86%30.06 "Hg4 mi
7:00 AM67 °FFog.1 mph87%30.06 "Hg5 mi
6:00 AM65 °FFog.1 mph89%30.07 "Hg4 mi
Weather by CustomWeather, © 2016

See weather overviewHow to use our weather pages